NOAA 16 DEB, 42348

Orbit data source: Space-Track

NOAA 16 DEB, 42348 is space debris in SSO originally from a launch on Thu, 21 Sep 2000 UTC launched from the Air Force Western Test Range (AFWTR). Debris objects in space refer to the collection of defunct objects orbiting the Earth. Examples of debris include non-operational satellites, rocket bodies, and fragments generated from explosions, collisions, or faulty payload assembly.

Loading next visibility...
Identifier
42348, 2000-055QQ
Orbit
SSO
Country
Flag of USUS
Related business
Manufacturer
Unknown
Mission
Spacecraft
Bus & Motor
Unknown
Mass
Unknown
Launch date (UTC)
2000-09-21 (26 years ago)
Launch vehicle
Unknown
Launch site
Air Force Western Test Range (AFWTR)
Object type
Payload
Rocket body
Debris
Shape & HBR
Unknown shape, 0.1 m
Radar Cross Section
Small (<0.1 m²)

Expand to show TLE details & history
Last TLE update: 5 days ago

TLE from 5 days ago
0 NOAA 16 DEB
1 42348U 00055QQ  26168.21454160  .00002130  00000-0  10819-2 0  9994
2 42348  98.8100 160.5187 0053529 284.3063  75.2171 14.16264087529285
Epoch: 2026-06-17T05:08Z
TLE epoch observation values (Epoch: 2026-06-17T05:08:56.394Z)
Latitude
-0.00002°
Longitude
177.8083°
Altitude
831.257 km
Speed
7.442 km/s
True Right ascension
10h 42m 04s
True Declination
0° 00' 00"
Sunlit
Object was in daylight at epoch
Visualization orbit readout
Latitude
Unknown
Longitude
Unknown
Altitude
Unknown
Speed
Unknown
Apparent Right ascension
Unknown
Apparent Declination
Unknown
Sunlit
N/A
Visualization observer readout
Local Sidereal Time
23:19:43
Azimuth
Unknown
Elevation
Unknown
Doppler factor
Unknown
Orbital elements
Apogee altitude
873.796 km
Perigee altitude
796.571 km
Semi-major axis
7,213.32 km
Eccentricity
0.00535
Inclination
98.81°
RAAN
160.5187°
Arg. of periapsis
284.3063°
True anomaly
75.8112°
Mean anomaly
75.2171°
Eccentric anomaly
75.51405°
Mean motion
3.54275 °/min
Orbital period
101.62 mins
BSTAR
0.0010819
Loading maneuver chart data...
Computing Atmospheric mass density...
Loading historical data...
Loading historical data...
Loading historical data...
Loading historical data...
Loading historical data...
Loading historical data...
Loading historical data...

Documentation

Showing up to 5 results
|